Location: Fredericton
(45.9636°N, 66.6431°W)
Time: 18:47:36
(UTC-04:00)

BlueWalker 3 - Visible Passes

Search period start: 04 December 2022 00:00
Search period end: 14 December 2022 00:00
Orbit: 501 x 519 km, 53.2° (Epoch: 04 December)

Date Brightness Start Highest point End Pass type
(mag) Time Alt. Az. Time Alt. Az. Time Alt. Az.
04 Dec 3.2 17:45:32 10° WNW 17:48:57 28° N 17:51:13 16° NE visible
04 Dec 4.0 19:24:24 10° NW 19:26:02 23° NW 19:26:02 23° NW visible
05 Dec 3.2 17:27:09 10° WNW 17:30:35 28° N 17:33:40 12° ENE visible
05 Dec 3.2 19:06:00 10° NW 19:08:30 34° NNW 19:08:30 34° NNW visible
06 Dec 2.3 18:47:36 10° NW 18:51:01 52° N 18:51:01 52° N visible
07 Dec 2.0 18:29:12 10° NW 18:33:04 58° NNE 18:33:39 51° ENE visible
07 Dec 5.2 20:08:10 10° WNW 20:08:30 12° WNW 20:08:30 12° WNW visible
08 Dec 2.0 18:10:47 10° NW 18:14:40 60° NNE 18:16:25 30° E visible
08 Dec 4.6 19:49:48 10° WNW 19:51:17 19° W 19:51:17 19° W visible
09 Dec 2.0 17:52:22 10° NW 17:56:16 63° NNE 17:59:22 15° ESE visible
09 Dec 4.0 19:31:26 10° WNW 19:34:15 25° WSW 19:34:15 25° WSW visible
10 Dec 1.9 17:33:57 10° NW 17:37:52 66° NNE 17:41:44 10° ESE visible
10 Dec 4.0 19:13:04 10° W 19:16:15 24° SW 19:17:29 20° SSW visible
11 Dec 1.9 17:15:32 10° NW 17:19:27 70° NNE 17:23:19 10° ESE visible
11 Dec 4.3 18:54:42 10° W 18:57:48 23° SW 19:00:52 10° S visible
12 Dec 4.5 18:36:21 10° W 18:39:21 21° SW 18:42:20 10° S visible
13 Dec 4.7 18:18:00 10° W 18:20:54 20° SW 18:23:47 10° S visible
